Regional Weather Roundup
Issued by NWS Midland/Odessa, TX

Skip options and go directly to product.
Home | Oldest Version | Previous Version | Current Version | All | Graphics & Text | Save Text | Print | Product List | Glossary On

Skip product version selection by date and time.   
945
ASUS44 KMAF 311110
RWRMAF
MIDLAND AREA WEATHER ROUNDUP
NATIONAL WEATHER SERVICE MIDLAND TX
600 AM CDT THU JUL 31 2014

...IN SOUTHWEST TEXAS AND SOUTHEAST NEW MEXICO...

CITY           SKY/WX    TMP DP  RH WIND       PRES   REMARKS
ALPINE         MOCLDY    70  62  76 N14       30.24R
ANDREWS        CLOUDY    68  60  75 NE13G23   30.16S
ARTESIA        CLOUDY    64  64 100 NE12      30.22S
BIG SPRING     CLOUDY    74  63  69 N18       30.13S
CARLSBAD       CLOUDY    69  63  81 N13         N/A
DRYDEN           N/A     83  65  54 NE10      29.98R
FORT STOCKTON  MOCLDY    73  65  75 NE14      30.11R
GUAD PASS      CLOUDY    63  59  87 E26       30.26S
HOBBS          NOT AVBL
MARFA          MOCLDY    68  57  68 N9        30.22R
MIDLAND AIRPK  CLOUDY    71  62  73 N16       30.13S
MIDLAND INTL   CLOUDY    70  61  73 NE21      30.11S
ODESSA         CLOUDY    70  62  76 NE20      30.13S
PECOS          MOCLDY    70  64  79 NW14      30.12R
PRESIDIO       FAIR      83  58  41 NW6       30.04R
SEMINOLE       CLOUDY    67  58  73 NE13G21   30.18S
SNYDER         CLOUDY    68  61  78 N14G21    30.12R
WINK           CLOUDY    73  64  73 N14       30.11R
$$
...OTHER STATIONS IN TEXAS...

CITY           SKY/WX    TMP DP  RH WIND       PRES   REMARKS
ABILENE        CLOUDY    70  64  81 N15       30.05R
AMARILLO       MOCLDY    59  57  93 N7        30.23R
AUSTIN         MOCLDY    78  72  81 S6        29.94S
BROWNSVILLE    CLEAR     78  76  93 S7        29.93S
CORPUS CHRISTI PTCLDY    79  76  90 S12       29.92F
DALLAS FTW     CLOUDY    76  70  82 SE12      29.92F
DEL RIO        PTCLDY    80  72  76 E14       29.90S
EL PASO        CLOUDY    74  61  63 E9        30.16F
HOUSTON INT    MOCLDY    79  74  84 S3        29.95S
LUBBOCK        CLOUDY    65  58  78 N12       30.18R
SAN ANGELO     CLOUDY    74  67  78 NE9       30.04R
SAN ANTONIO    CLOUDY    80  73  79 S10       29.96S
WACO           MOCLDY    77  70  78 SW14      29.95R
WICHITA FALLS  NOT AVBL
$$
...OTHER LOCATIONS IN NEW MEXICO...

CITY           SKY/WX    TMP DP  RH WIND       PRES   REMARKS
ALAMAGORDO     CLOUDY    70  66  88 NW5       30.19S
ALBUQUERQUE    MOCLDY    64  56  75 E15       30.28S
CANNON AFB     CLOUDY    62  62 100 NE7       30.26S
CLOVIS         CLOUDY    61  55  82 NE10      30.27
HOLLOMAN AFB   CLOUDY    70  66  88 E2        30.17F
ROSWELL        CLOUDY    67  61  81 CALM      30.23F
RUIDOSO        NOT AVBL
SANTA FE       CLOUDY    58  55  90 S10       30.34S
TRUTH OR CONSE MOCLDY    68  59  73 N9        30.23R
TUCUMCARI      PTCLDY    61  56  83 CALM      30.25F
$$

USA.gov is the U.S. government's official web portal to all federal, state and local government web resources and services.